Regional Weather Roundup
Issued by NWS State College, PA

Home | Current Version | Previous Version | Graphics & Text | Print | Product List | Glossary Off
Versions: 1 2 3 4 5 6 7 8 9 10 11 12 13 14 15 16 17 18 19 20 21 22 23 24 25 26 27 28 29 30 31 32 33 34 35 36 37 38 39 40 41 42 43 44 45 46 47 48 49 50

091
ASUS41 KCTP 061410
RWRCTP

REGIONAL WEATHER ROUNDUP
NATIONAL WEATHER SERVICE STATE COLLEGE PA
900 AM EST SAT FEB 06 2016

Note: "fair" indicates few or no clouds below 12,000 feet with no
significant weather and/or obstructions to visibility.

* = STATION THAT DOES NOT REPORT PRECIPITATION /E.G. RAIN...SNOW...ETC/
    THUNDER OR FOG.

PAZ002>004-007>009-013>016-020>023-029>032-061500-
WESTERN PENNSYLVANIA

CITY           SKY/WX    TMP DP  RH WIND       PRES   REMARKS
ERIE           CLOUDY    32  23  69 SW10      30.28S
MEADVILLE      PTSUNNY   30  18  60 SW5       30.26R
FRANKLIN*      SUNNY     28  18  64 SW9       30.27F
NEW CASTLE     FAIR      31  19  61 VRB6      30.30S
BEAVER COUNTY  MOSUNNY   32  18  55 SW8       30.29
BUTLER*        PTSUNNY   30  16  55 S7        30.33R
PITTSBURGH INT PTSUNNY   32  15  49 SW7       30.30S
PITTSBURGH     SUNNY     32  17  54 S9        30.30S
INDIANA*       CLOUDY    30  19  64 SW6       30.33S
LATROBE        MOSUNNY   30  43 100 SW7       30.33R
WASHINGTON CO* CLOUDY    30  18  59 S3        30.31S
$$

PAZ004>006-010>012-017>019-024>028-033>037-041-042-045-046-049>053-061500-
CENTRAL PENNSYLVANIA

CITY           SKY/WX    TMP DP  RH WIND       PRES   REMARKS
BRADFORD       CLOUDY    27  16  63 SW10      30.21S
DUBOIS         CLOUDY    28  16  60 SW9       30.25S
CLEARFIELD     CLOUDY    25  19  78 CALM      30.30S
JOHNSTOWN      PTSUNNY   27  13  55 S9        30.26S
ALTOONA        MOSUNNY   29  19  66 SW3       30.33S
STATE COLLEGE  CLOUDY    25  19  80 CALM      30.33S
WILLIAMSPORT   CLOUDY    24  19  81 E3        30.37S
SELINSGROVE    MOSUNNY   29  23  78 VRB5      30.40S
FT INDIANTOWN  MOSUNNY   26  22  86 CALM      30.42R
CAPITAL CITY   CLOUDY    27  20  75 CALM      30.42S
HARRISBURG     CLOUDY    30  19  63 E6        30.42S
YORK           CLOUDY    26  22  84 CALM      30.42R
$$

PAZ038>040-043-044-047-048-054-055-060>062-067>071-061500-
EASTERN PENNSYLVANIA

CITY           SKY/WX    TMP DP  RH WIND       PRES   REMARKS
SCRANTON       CLOUDY    26  17  68 CALM      30.35F
MOUNT POCONO   CLOUDY    26  16  65 W6        30.30S
ALLENTOWN      CLOUDY    28  21  75 CALM      30.43R
QUAKERTOWN*    CLOUDY    25  23  93 CALM      30.43R
READING        CLOUDY    28  20  71 CALM      30.43R
LANCASTER      MOSUNNY   26  21  81 CALM      30.43R
COATESVILLE    MOSUNNY   32  21  64 CALM      30.43R
POTTSTOWN      CLOUDY    28  22  78 CALM      30.45R
BLUE BELL        N/A     30  23  74 CALM      30.44R
DOYLESTOWN     CLOUDY    27  21  78 CALM      30.42R
WILLOW GROVE   NOT AVBL
NORTH PHILA    CLOUDY    33  26  75 CALM      30.46R
PHILADELPHIA   CLOUDY    32  23  69 SW3       30.46R
$$




USA.gov is the U.S. government's official web portal to all federal, state and local government web resources and services.